[[{"header":{"parameterUnit":"m.s-1","parameterCategory":1,"la1":30.2991,"la2":30.254,"lo1":-89.0895,"lo2":-89.0444,"dy":0.0017,"dx":0.0017,"nx":28,"ny":28,"refTime":"2023-09-04T09:00:00:Z","depth":0,"parameterNumber":2,"parameterNumberName":"U-component_of_WINDS"},"data":[0,0,0,0,0,0,0,0,0,0,0,0,0,0,0,0,0,0,0,0,0,0,0,0,0,0,0,0,0,0,0,0,0,0,0,0,0,0,0,0,0,0,0,0,0,0,0,0,0,0,0,0,0,0,0,0,0,0,-3.0766,-3.0767,0,-3.0847,-3.0848,-3.0849,-3.0795,-3.0792,-3.079,-3.0787,-3.0869,-3.0873,-3.0878,0,0,0,0,0,0,0,0,0,0,0,0,0,-3.0561,-3.0565,-3.0766,-3.0767,-3.0768,-3.0847,-3.0848,-3.0849,-3.0795,-3.0792,-3.0789,-3.0786,-3.0868,-3.0873,-3.0878,0,0,0,0,0,0,0,0,0,0,0,0,0,-3.0647,-3.0566,-3.0765,-3.075,-3.075,-3.0847,-3.0848,-3.085,-3.0796,-3.0792,-3.0788,-3.0785,-3.0866,-3.0872,-3.0879,-3.0995,0,0,-3.09,-3.0902,0,0,0,0,0,0,0,0,-3.0642,-3.0654,-3.0751,-3.0751,-3.0751,-3.0807,-3.0806,-3.0898,-3.0797,-3.0778,-3.0787,-3.0783,-3.0851,-3.0859,-3.0882,-3.0999,-3.1003,-3.09,-3.0904,-3.0907,-3.0909,0,0,0,0,0,0,0,-3.0636,-3.065,-3.0798,-3.0753,-3.0753,-3.0739,-3.0747,-3.0823,-3.0835,-3.078,-3.0776,-3.0786,-3.085,-3.0876,-3.0884,-3.1004,-3.09,-3.0906,-3.091,-3.0913,-3.1219,-3.1223,0,0,0,0,0,0,-3.0632,-3.0646,-3.0795,-3.08,-3.0686,-3.0745,-3.0754,-3.0793,-3.0834,-3.0836,-3.0789,-3.0783,-3.0866,-3.0876,-3.0887,-3.1025,-3.0907,-3.0913,-3.0917,-3.1215,-3.122,-3.1224,0,0,0,0,0,0,-3.0627,-3.0645,-3.0792,-3.0722,-3.074,-3.0753,-3.0796,-3.0796,-3.0822,-3.0841,-3.0843,-3.0814,-3.0864,-3.0877,-3.0969,-3.1027,-3.0916,-3.0923,-3.121,-3.1216,-3.1222,-3.1302,0,0,0,0,0,0,-3.0622,-3.0644,-3.0689,-3.0724,-3.0744,-3.0874,-3.08,-3.0801,-3.0834,-3.0827,-3.0864,-3.0867,-3.0862,-3.0959,-3.0975,-3.1034,-3.0928,-3.1205,-3.1213,-3.122,-3.1294,-3.131,-3.1324,0,0,0,0,0,-3.0615,-3.0708,-3.0692,-3.071,-3.08,-3.0877,-3.0888,-3.0881,-3.0839,-3.0884,-3.0896,-3.0866,-3.1018,-3.0969,-3.0987,-3.1048,-3.1201,-3.1211,-3.1219,-3.1288,-3.1307,-3.1324,0,0,0,0,0,0,-3.068,-3.0712,-3.0694,-3.0802,-3.0837,-3.0868,-3.0924,-3.0902,-3.095,-3.0941,-3.093,-3.0939,-3.1034,-3.105,-3.0995,-3.1163,-3.1103,-3.1116,-3.1148,-3.1167,-3.1181,-3.1175,-3.0933,0,0,0,0,0,-3.0707,-3.0767,-3.0792,-3.0885,-3.0903,-3.0911,-3.0944,-3.0936,-3.0971,-3.0986,-3.1004,-3.104,-3.1095,-3.1132,-3.1184,-3.1297,-3.1303,-3.1348,-3.1363,-3.1375,-3.1386,-3.1446,-3.1465,-3.1254,-3.1254,-3.1254,0,0,-3.0763,-3.0788,-3.0827,-3.0898,-3.0925,-3.0986,-3.0924,-3.0992,-3.1037,-3.0996,-3.1083,-3.1099,-3.1137,-3.1239,-3.1285,-3.1256,-3.1446,-3.1387,-3.1396,-3.1401,-3.1457,-3.1477,-3.1495,-3.1261,-3.126,-3.1259,0,0,-3.0896,-3.0922,-3.1002,-3.1029,-3.107,-3.1074,-3.1094,-3.1128,-3.1136,-3.1224,-3.1194,-3.1248,-3.1344,-3.1372,-3.1399,-3.1544,-3.1518,-3.1561,-3.1638,-3.1696,-3.1713,-3.1728,-3.1778,-3.1797,-3.1573,-3.1573,-3.1573,0,-3.0961,-3.1053,-3.1045,-3.1116,-3.1148,-3.1114,-3.1193,-3.1221,-3.1276,-3.1299,-3.1265,-3.1385,-3.1409,-3.1517,-3.1552,-3.1575,-3.1596,-3.1557,-3.1711,-3.1726,-3.174,-3.1788,-3.1807,-3.1578,-3.1577,-3.1577,-3.1576,0,-3.113,-3.1195,-3.1254,-3.1309,-3.1348,-3.1423,-3.1425,-3.1465,-3.1454,-3.1461,-3.1551,-3.1578,-3.1635,-3.166,-3.1649,-3.1767,-3.1747,-3.1713,-3.1652,-3.1765,-3.181,-3.1828,-3.1585,-3.1583,-3.1582,-3.1581,0,0,-3.1306,-3.1356,-3.1378,-3.1402,-3.1444,-3.1494,-3.1567,-3.1623,-3.1657,-3.1697,-3.1757,-3.184,-3.1809,-3.1839,-3.1832,-3.1883,-3.1995,-3.1842,-3.1843,-3.1869,-3.2124,-3.2149,-3.2171,-3.1978,-3.1981,-3.1984,-3.2121,0,-3.1442,-3.157,-3.1564,-3.1684,-3.1743,-3.1711,-3.1775,-3.1807,-3.1817,-3.1868,-3.1878,-3.1936,-3.1891,-3.1909,-3.1959,-3.1971,-3.2046,-3.1961,-3.2033,-3.2035,-3.2023,-3.2194,-3.2221,-3.2348,-3.2138,-3.2141,-3.2144,0,-3.1617,-3.1662,-3.1788,-3.1821,-3.1846,-3.1903,-3.1954,-3.2003,-3.2039,-3.2042,-3.2077,-3.2061,-3.2134,-3.2072,-3.2172,-3.2115,-3.2144,-3.2155,-3.2159,-3.2165,-3.2096,-3.2204,-3.2389,-3.2408,-3.2171,-3.2169,-3.2167,0,-3.1731,-3.1825,-3.1911,-3.1933,-3.1974,-3.2015,-3.2034,-3.2067,-3.2101,-3.2145,-3.2167,-3.2219,-3.2247,-3.2288,-3.2286,-3.2241,-3.2387,-3.2325,-3.2391,-3.2391,-3.2422,-3.242,-3.2614,-3.2443,-3.2442,-3.2442,-3.2442,0,-3.1883,-3.196,-3.1963,-3.2017,-3.2103,-3.2096,-3.2181,-3.2195,-3.2224,-3.2279,-3.2255,-3.2307,-3.2302,-3.2354,-3.2353,-3.2436,-3.2449,-3.2453,-3.2451,-3.2455,-3.2454,-3.2473,-3.2464,-3.2447,-3.2446,-3.2445,-3.2444,0,-3.2025,-3.2031,-3.2123,-3.2154,-3.2164,-3.2226,-3.2252,-3.2303,-3.231,-3.238,-3.2396,-3.2407,-3.2467,-3.247,-3.2539,-3.2538,-3.2639,-3.2628,-3.2627,-3.2624,-3.2689,-3.2683,-3.2901,-3.2929,-3.2741,-3.2742,-3.2744,0,-3.2121,-3.218,-3.2218,-3.2253,-3.2274,-3.2332,-3.2366,-3.2362,-3.2399,-3.2444,-3.2489,-3.2547,-3.2593,-3.2691,-3.2704,-3.2757,-3.2747,-3.282,-3.2754,-3.2756,-3.2747,-3.2743,-3.2748,-3.2832,-3.2834,-3.2836,-3.2837,0,-3.229,-3.2289,-3.234,-3.2393,-3.2435,-3.2476,-3.2513,-3.2544,-3.2543,-3.2586,-3.2647,-3.2683,-3.2754,-3.2812,-3.2863,-3.2881,-3.2859,-3.2858,-3.2876,-3.2879,-3.2876,-3.2877,-3.266,-3.2853,-3.2851,-3.285,-3.2849,-3.2849,-3.2411,-3.2462,-3.2496,-3.2554,-3.2582,-3.2618,-3.2666,-3.268,-3.2731,-3.2789,-3.2783,-3.2851,-3.2885,-3.2951,-3.2974,-3.3027,-3.3002,-3.3028,-3.3034,-3.304,-3.3047,-3.2868,-3.3036,-3.3036,-3.3036,-3.3035,-3.3035,0,-3.2578,-3.2599,-3.2652,-3.2705,-3.2751,-3.2727,-3.2767,-3.2806,-3.2867,-3.2901,-3.2947,-3.3017,-3.3073,-3.3091,-3.3145,-3.3184,-3.3175,-3.3198,-3.3195,-3.3199,-3.3067,-3.3046,-3.3204,-3.3204,-3.3204,-3.3204,-3.3204,-3.3204,-3.267,-3.2754,-3.2758,-3.2856,-3.2876,-3.2943,-3.2968,-3.3001,-3.3027,-3.3107,-3.3154,-3.3166,-3.3193,-3.3249,-3.3299,-3.3303,-3.3323,-3.3351,-3.335,-3.3226,-3.3209,-3.3192,-3.3172,-3.3355,-3.3356,-3.3478,-3.3479,-3.348]},{"header":{"parameterUnit":"m.s-1","parameterCategory":1,"la1":30.2991,"la2":30.254,"lo1":-89.0895,"lo2":-89.0444,"dy":0.0017,"dx":0.0017,"nx":28,"ny":28,"refTime":"2023-09-04T09:00:00:Z","depth":0,"parameterNumber":3,"parameterNumberName":"V-component_of_WINDS"},"data":[0,0,0,0,0,0,0,0,0,0,0,0,0,0,0,0,0,0,0,0,0,0,0,0,0,0,0,0,0,0,0,0,0,0,0,0,0,0,0,0,0,0,0,0,0,0,0,0,0,0,0,0,0,0,0,0,0,0,1.6448,1.6448,0,1.6439,1.6439,1.6439,1.6386,1.6384,1.6383,1.6382,1.6374,1.6375,1.6376,0,0,0,0,0,0,0,0,0,0,0,0,0,1.6417,1.6418,1.6448,1.6448,1.6447,1.6439,1.6439,1.6439,1.6386,1.6384,1.6383,1.6381,1.6373,1.6375,1.6376,0,0,0,0,0,0,0,0,0,0,0,0,0,1.6422,1.6418,1.6448,1.642,1.6417,1.6439,1.6439,1.6439,1.6386,1.6384,1.6382,1.638,1.6373,1.6374,1.6376,1.6424,0,0,1.6381,1.6381,0,0,0,0,0,0,0,0,1.6422,1.6423,1.6424,1.6422,1.6419,1.6411,1.6425,1.6434,1.6387,1.6398,1.6382,1.6379,1.6388,1.6388,1.6391,1.6424,1.6424,1.6381,1.6382,1.6382,1.6383,0,0,0,0,0,0,0,1.6421,1.6423,1.6444,1.6424,1.6421,1.6408,1.6406,1.6427,1.6404,1.6397,1.6393,1.6393,1.6386,1.6389,1.639,1.6423,1.6381,1.6382,1.6383,1.6383,1.6494,1.6496,0,0,0,0,0,0,1.6425,1.6423,1.6445,1.6444,1.6416,1.641,1.6408,1.6416,1.6404,1.64,1.6394,1.639,1.6388,1.6389,1.639,1.6444,1.6382,1.6384,1.6384,1.6492,1.6495,1.6497,0,0,0,0,0,0,1.6425,1.6427,1.6445,1.6433,1.6434,1.6412,1.6421,1.6417,1.642,1.6402,1.6397,1.6402,1.6386,1.6388,1.6416,1.6443,1.6384,1.6386,1.649,1.6493,1.6496,1.6555,0,0,0,0,0,0,1.6424,1.6428,1.6446,1.6433,1.6435,1.6471,1.6423,1.6418,1.6423,1.6417,1.6408,1.6404,1.6385,1.6414,1.6417,1.6444,1.6387,1.6487,1.6491,1.6495,1.655,1.6559,1.6567,0,0,0,0,0,1.6423,1.6463,1.6447,1.645,1.6457,1.6473,1.6474,1.645,1.6425,1.6443,1.6431,1.6405,1.644,1.6417,1.6421,1.6448,1.6486,1.649,1.6495,1.6546,1.6557,1.6567,0,0,0,0,0,0,1.648,1.6461,1.6443,1.648,1.6479,1.6464,1.6486,1.6463,1.6469,1.6464,1.6435,1.6433,1.6465,1.646,1.6435,1.6494,1.6458,1.6464,1.6496,1.6507,1.6515,1.6515,1.6388,0,0,0,0,0,1.6497,1.6511,1.6494,1.6528,1.6528,1.6508,1.6514,1.6496,1.6493,1.6492,1.6482,1.6481,1.6491,1.6499,1.6508,1.6549,1.6546,1.657,1.6579,1.6586,1.6591,1.6611,1.6621,1.6512,1.6512,1.6512,0,0,1.6532,1.6523,1.6534,1.654,1.6536,1.6551,1.6507,1.6526,1.6537,1.6495,1.652,1.6513,1.651,1.6544,1.6559,1.6541,1.662,1.6592,1.6598,1.6598,1.6617,1.6627,1.6636,1.6515,1.6515,1.6514,0,0,1.6603,1.6598,1.6626,1.6623,1.6618,1.6604,1.6611,1.6599,1.6593,1.6618,1.6586,1.6599,1.6618,1.6616,1.6618,1.6688,1.6663,1.6692,1.6736,1.6756,1.6765,1.6772,1.6796,1.6805,1.6697,1.6697,1.6697,0,1.6647,1.6668,1.6643,1.6663,1.6666,1.6628,1.6655,1.6654,1.6653,1.6656,1.6635,1.6658,1.6653,1.6686,1.6703,1.6706,1.6712,1.6692,1.6766,1.6773,1.6779,1.6801,1.681,1.67,1.67,1.67,1.6699,0,1.6722,1.6737,1.676,1.6759,1.6764,1.6788,1.6766,1.6775,1.6757,1.6745,1.677,1.6763,1.6769,1.6776,1.6759,1.6806,1.6795,1.6771,1.6734,1.6793,1.6814,1.6822,1.6705,1.6704,1.6703,1.6702,0,0,1.6828,1.6812,1.682,1.6819,1.681,1.6822,1.6844,1.6849,1.6857,1.6857,1.6874,1.6891,1.6868,1.687,1.6852,1.687,1.6924,1.6843,1.6843,1.6858,1.6975,1.6992,1.7003,1.6908,1.691,1.6911,1.6975,0,1.6895,1.693,1.6908,1.6947,1.696,1.6925,1.6944,1.6941,1.693,1.694,1.6928,1.694,1.6909,1.691,1.6926,1.6914,1.6947,1.691,1.6923,1.6924,1.6924,1.7013,1.7032,1.7092,1.6983,1.6984,1.6985,0,1.6978,1.698,1.7021,1.7009,1.7013,1.7031,1.7033,1.7043,1.7039,1.703,1.7032,1.7009,1.7029,1.6994,1.7021,1.6996,1.7,1.6995,1.6997,1.6996,1.6957,1.7014,1.7111,1.712,1.6998,1.6997,1.6996,0,1.7049,1.7063,1.7089,1.7089,1.7076,1.7088,1.7084,1.7077,1.7082,1.7084,1.7087,1.7092,1.7095,1.7099,1.7079,1.7055,1.7108,1.7071,1.71,1.7101,1.7112,1.7111,1.721,1.7117,1.7117,1.7117,1.7117,0,1.7125,1.7151,1.7121,1.7136,1.7164,1.7138,1.7166,1.7157,1.7152,1.7165,1.7135,1.7148,1.7121,1.7131,1.7115,1.7139,1.7141,1.7134,1.7129,1.7136,1.7136,1.7137,1.7132,1.7119,1.7119,1.7118,1.7118,0,1.721,1.719,1.7215,1.7201,1.7198,1.7218,1.7206,1.7219,1.7207,1.7224,1.7226,1.7206,1.7216,1.7196,1.7205,1.7194,1.7227,1.7217,1.7228,1.7225,1.7254,1.7251,1.7356,1.7367,1.7269,1.727,1.7271,0,1.7259,1.7278,1.7265,1.7271,1.7267,1.7278,1.7282,1.7258,1.7263,1.7259,1.7273,1.7281,1.7285,1.7304,1.729,1.7296,1.7284,1.732,1.7285,1.729,1.7283,1.7281,1.7282,1.7327,1.7328,1.7329,1.733,0,1.7348,1.7337,1.7344,1.7347,1.7352,1.7354,1.7353,1.7361,1.7334,1.7342,1.7351,1.7355,1.7363,1.737,1.7373,1.7368,1.7345,1.7342,1.7348,1.7354,1.736,1.7356,1.7247,1.7339,1.7338,1.7337,1.7337,1.7337,1.7415,1.7429,1.7422,1.743,1.7427,1.7427,1.7438,1.7427,1.7434,1.7438,1.7423,1.7436,1.7431,1.7431,1.7429,1.7438,1.7422,1.7432,1.7435,1.7437,1.7441,1.736,1.7439,1.7439,1.7438,1.7438,1.7438,0,1.7501,1.7495,1.7502,1.7502,1.7508,1.7485,1.7483,1.749,1.7502,1.7498,1.7503,1.7514,1.7521,1.7508,1.7513,1.7523,1.7513,1.7525,1.7524,1.7523,1.7456,1.7449,1.7534,1.7534,1.7534,1.7534,1.7534,1.7534,1.7547,1.7569,1.7558,1.7578,1.7571,1.7583,1.7584,1.7583,1.758,1.7593,1.7599,1.759,1.7582,1.7587,1.7592,1.7588,1.7591,1.7607,1.7599,1.7537,1.7527,1.7518,1.7512,1.7608,1.7608,1.7664,1.7665,1.7665]}]]